[[{"header":{"parameterUnit":"m.s-1","parameterCategory":1,"la1":30.2991,"la2":30.254,"lo1":-89.0895,"lo2":-89.0444,"dy":0.0017,"dx":0.0017,"nx":28,"ny":28,"refTime":"2024-02-21T03:00:00:Z","depth":0,"parameterNumber":2,"parameterNumberName":"U-component_of_WINDS"},"data":[0,0,0,0,0,0,0,0,0,0,0,0,0,0,0,0,0,0,0,0,0,0,0,0,0,0,0,0,0,0,0,0,0,0,0,0,0,0,0,0,0,0,0,0,0,0,0,0,0,0,0,0,0,0,0,0,0,0,1.3246,1.3247,0,1.3282,1.3282,1.3282,1.3253,1.3251,1.325,1.3249,1.3283,1.3285,1.3287,0,0,0,0,0,0,0,0,0,0,0,0,0,1.3151,1.3153,1.3246,1.3247,1.3247,1.3281,1.3282,1.3282,1.3253,1.3251,1.325,1.3248,1.3282,1.3285,1.3287,0,0,0,0,0,0,0,0,0,0,0,0,0,1.319,1.3154,1.3246,1.3237,1.3236,1.3281,1.3282,1.3283,1.3253,1.3251,1.3249,1.3248,1.3281,1.3284,1.3287,1.3344,0,0,1.3297,1.3298,0,0,0,0,0,0,0,0,1.3188,1.3193,1.3238,1.3237,1.3237,1.3261,1.3261,1.3303,1.3254,1.3247,1.3249,1.3247,1.3277,1.328,1.3291,1.3345,1.3347,1.3297,1.3299,1.33,1.3301,0,0,0,0,0,0,0,1.3185,1.3192,1.326,1.3238,1.3238,1.323,1.3233,1.3269,1.3272,1.3247,1.3245,1.325,1.3276,1.3288,1.3291,1.3347,1.3297,1.33,1.3302,1.3303,1.3447,1.3449,0,0,0,0,0,0,1.3184,1.319,1.3259,1.3261,1.3207,1.3233,1.3237,1.3255,1.3271,1.3272,1.3251,1.3248,1.3284,1.3288,1.3293,1.3357,1.33,1.3303,1.3305,1.3445,1.3447,1.3449,0,0,0,0,0,0,1.3182,1.319,1.3258,1.3225,1.3233,1.3237,1.3257,1.3257,1.3268,1.3274,1.3274,1.3263,1.3282,1.3288,1.3331,1.3358,1.3305,1.3307,1.3442,1.3446,1.3448,1.3489,0,0,0,0,0,0,1.3179,1.319,1.3212,1.3226,1.3235,1.3296,1.3259,1.3259,1.3274,1.327,1.3285,1.3286,1.3281,1.3326,1.3334,1.3361,1.331,1.344,1.3444,1.3447,1.3485,1.3493,1.3499,0,0,0,0,0,1.3176,1.3222,1.3213,1.3221,1.3263,1.3298,1.3303,1.3297,1.3276,1.3298,1.3301,1.3285,1.3354,1.3331,1.3339,1.3368,1.3438,1.3443,1.3447,1.3482,1.3491,1.3499,0,0,0,0,0,0,1.321,1.3223,1.3214,1.3266,1.3281,1.3293,1.332,1.3308,1.3329,1.3325,1.3316,1.332,1.3364,1.3371,1.3344,1.3422,1.3393,1.3399,1.3416,1.3425,1.3432,1.3429,1.3312,0,0,0,0,0,1.3224,1.3253,1.3262,1.3307,1.3315,1.3316,1.3332,1.3326,1.3341,1.3347,1.3354,1.3369,1.3393,1.341,1.3433,1.3486,1.3488,1.351,1.3517,1.3523,1.3528,1.3554,1.3564,1.3464,1.3464,1.3464,0,0,1.3253,1.3263,1.3282,1.3314,1.3325,1.3354,1.3322,1.3354,1.3374,1.3352,1.3392,1.3398,1.3413,1.3461,1.3482,1.3467,1.3556,1.3529,1.3533,1.3535,1.356,1.3569,1.3578,1.3467,1.3466,1.3466,0,0,1.3319,1.3331,1.3368,1.338,1.3397,1.3398,1.3407,1.342,1.3423,1.3464,1.3447,1.3471,1.3514,1.3526,1.3537,1.3607,1.3592,1.3614,1.3651,1.3677,1.3685,1.3692,1.3715,1.3723,1.362,1.362,1.362,0,1.3351,1.3394,1.3389,1.3422,1.3435,1.3417,1.3454,1.3466,1.349,1.3499,1.3483,1.3536,1.3545,1.3594,1.3611,1.3622,1.363,1.3612,1.3685,1.3691,1.3698,1.3719,1.3728,1.3622,1.3622,1.3622,1.3622,0,1.3433,1.3463,1.3491,1.3515,1.3532,1.3567,1.3566,1.3584,1.3577,1.3578,1.3619,1.3629,1.3654,1.3665,1.3659,1.3713,1.3703,1.3686,1.3656,1.371,1.373,1.3738,1.3626,1.3625,1.3624,1.3624,0,0,1.3521,1.3541,1.3551,1.3561,1.3578,1.3601,1.3634,1.3658,1.3673,1.369,1.3717,1.3754,1.3738,1.3751,1.3745,1.3768,1.382,1.3748,1.3748,1.3759,1.3878,1.3889,1.3899,1.3811,1.3813,1.3814,1.3876,0,1.3586,1.3645,1.364,1.3695,1.3721,1.3704,1.3733,1.3746,1.3749,1.3771,1.3773,1.3799,1.3777,1.3784,1.3806,1.3809,1.3843,1.3805,1.3834,1.3835,1.3829,1.391,1.3922,1.398,1.3884,1.3885,1.3886,0,1.367,1.3689,1.3747,1.3759,1.377,1.3796,1.3817,1.3839,1.3853,1.3853,1.3868,1.3858,1.389,1.3861,1.3904,1.3878,1.389,1.3893,1.3895,1.3896,1.3863,1.3911,1.3998,1.4006,1.3899,1.3898,1.3897,0,1.3725,1.3767,1.3806,1.3815,1.3831,1.3849,1.3857,1.3869,1.3883,1.3902,1.391,1.3932,1.3944,1.396,1.3956,1.3936,1.4,1.3971,1.3999,1.3999,1.4012,1.4011,1.4101,1.4023,1.4023,1.4023,1.4023,0,1.3797,1.3833,1.3831,1.3855,1.3893,1.3888,1.3926,1.3931,1.3942,1.3965,1.3952,1.3975,1.3969,1.3991,1.3988,1.4023,1.4029,1.4029,1.4027,1.4029,1.4028,1.4035,1.403,1.4025,1.4025,1.4024,1.4024,0,1.3865,1.3866,1.3907,1.3919,1.3922,1.395,1.3959,1.3981,1.3983,1.4013,1.4019,1.4021,1.4046,1.4044,1.4072,1.407,1.4113,1.4108,1.4108,1.4107,1.4135,1.4131,1.423,1.4242,1.4159,1.4159,1.416,0,1.391,1.3937,1.3951,1.3966,1.3975,1.4,1.4014,1.4009,1.4025,1.4042,1.4062,1.4086,1.4104,1.4144,1.4148,1.4169,1.4162,1.4196,1.4165,1.4166,1.416,1.4158,1.416,1.4201,1.4202,1.4203,1.4203,0,1.3989,1.3988,1.401,1.4031,1.4049,1.4066,1.4081,1.4094,1.4091,1.4108,1.4134,1.4148,1.4177,1.42,1.422,1.4226,1.4213,1.4213,1.422,1.4221,1.422,1.4219,1.4122,1.421,1.421,1.4209,1.4209,1.4209,1.4046,1.4068,1.4081,1.4105,1.4116,1.4131,1.4151,1.4155,1.4177,1.4199,1.4196,1.4223,1.4236,1.4261,1.4269,1.429,1.4278,1.4289,1.4292,1.4294,1.4297,1.4218,1.4294,1.4294,1.4294,1.4294,1.4294,0,1.4122,1.413,1.4152,1.4174,1.4192,1.418,1.4196,1.4212,1.4237,1.425,1.4269,1.4297,1.4319,1.4324,1.4345,1.4361,1.4355,1.4366,1.4364,1.4365,1.4307,1.4298,1.437,1.437,1.437,1.437,1.437,1.437,1.4164,1.42,1.42,1.4241,1.4249,1.4276,1.4286,1.4299,1.4309,1.4341,1.436,1.4363,1.4372,1.4394,1.4413,1.4414,1.4421,1.4434,1.4432,1.4377,1.437,1.4362,1.4353,1.4436,1.4436,1.4488,1.4488,1.4489]},{"header":{"parameterUnit":"m.s-1","parameterCategory":1,"la1":30.2991,"la2":30.254,"lo1":-89.0895,"lo2":-89.0444,"dy":0.0017,"dx":0.0017,"nx":28,"ny":28,"refTime":"2024-02-21T03:00:00:Z","depth":0,"parameterNumber":3,"parameterNumberName":"V-component_of_WINDS"},"data":[0,0,0,0,0,0,0,0,0,0,0,0,0,0,0,0,0,0,0,0,0,0,0,0,0,0,0,0,0,0,0,0,0,0,0,0,0,0,0,0,0,0,0,0,0,0,0,0,0,0,0,0,0,0,0,0,0,0,1.1978,1.1978,0,1.2008,1.2008,1.2009,1.1984,1.1983,1.1981,1.1981,1.201,1.2012,1.2014,0,0,0,0,0,0,0,0,0,0,0,0,0,1.1898,1.1899,1.1978,1.1978,1.1979,1.2008,1.2008,1.2009,1.1984,1.1982,1.1981,1.198,1.2009,1.2012,1.2014,0,0,0,0,0,0,0,0,0,0,0,0,0,1.1931,1.19,1.1978,1.197,1.1969,1.2008,1.2008,1.2009,1.1984,1.1982,1.1981,1.1979,1.2009,1.2011,1.2014,1.2062,0,0,1.2022,1.2023,0,0,0,0,0,0,0,0,1.1929,1.1934,1.1971,1.197,1.197,1.199,1.1991,1.2026,1.1984,1.1978,1.198,1.1979,1.2005,1.2008,1.2017,1.2063,1.2064,1.2022,1.2024,1.2025,1.2026,0,0,0,0,0,0,0,1.1926,1.1932,1.199,1.1971,1.1971,1.1964,1.1967,1.1997,1.2,1.1979,1.1977,1.1981,1.2004,1.2014,1.2017,1.2065,1.2022,1.2025,1.2026,1.2027,1.215,1.2152,0,0,0,0,0,0,1.1925,1.193,1.1989,1.1991,1.1945,1.1967,1.197,1.1985,1.2,1.2,1.1982,1.198,1.201,1.2014,1.2018,1.2074,1.2025,1.2027,1.2029,1.2149,1.2151,1.2152,0,0,0,0,0,0,1.1924,1.1931,1.1988,1.196,1.1967,1.197,1.1987,1.1987,1.1997,1.2002,1.2002,1.1992,1.2009,1.2014,1.2051,1.2075,1.2029,1.2031,1.2147,1.2149,1.2152,1.2187,0,0,0,0,0,0,1.1921,1.193,1.1949,1.1961,1.1968,1.202,1.1989,1.1989,1.2001,1.1998,1.2011,1.2012,1.2008,1.2047,1.2053,1.2078,1.2033,1.2144,1.2148,1.2151,1.2183,1.219,1.2196,0,0,0,0,0,1.1919,1.1957,1.195,1.1957,1.1992,1.2022,1.2026,1.2022,1.2004,1.2022,1.2025,1.2012,1.2071,1.2051,1.2058,1.2083,1.2143,1.2147,1.2151,1.2181,1.2189,1.2196,0,0,0,0,0,0,1.1948,1.1959,1.1951,1.1995,1.2008,1.2018,1.2041,1.2031,1.2049,1.2045,1.2038,1.2041,1.2079,1.2085,1.2062,1.2129,1.2104,1.2109,1.2125,1.2132,1.2138,1.2136,1.2035,0,0,0,0,0,1.196,1.1984,1.1992,1.203,1.2037,1.2038,1.2051,1.2046,1.2059,1.2064,1.207,1.2083,1.2104,1.2119,1.2139,1.2184,1.2186,1.2205,1.2211,1.2216,1.2221,1.2244,1.2252,1.2165,1.2165,1.2165,0,0,1.1984,1.1993,1.2009,1.2036,1.2045,1.207,1.2042,1.207,1.2088,1.2068,1.2103,1.2108,1.2121,1.2162,1.2181,1.2168,1.2245,1.2221,1.2225,1.2227,1.2249,1.2257,1.2265,1.2168,1.2167,1.2167,0,0,1.2041,1.205,1.2083,1.2093,1.2107,1.2108,1.2115,1.2127,1.2129,1.2164,1.215,1.2171,1.2208,1.2218,1.2228,1.2288,1.2276,1.2295,1.2327,1.235,1.2357,1.2363,1.2384,1.2391,1.2299,1.2299,1.2299,0,1.2069,1.2106,1.21,1.2129,1.2141,1.2124,1.2157,1.2166,1.2187,1.2195,1.2181,1.2227,1.2235,1.2278,1.2292,1.2301,1.2309,1.2293,1.2356,1.2362,1.2368,1.2388,1.2396,1.2301,1.2301,1.2301,1.2301,0,1.2139,1.2165,1.2189,1.221,1.2224,1.2255,1.2253,1.2269,1.2262,1.2264,1.2299,1.2308,1.2329,1.2339,1.2333,1.2381,1.2372,1.2358,1.2332,1.2379,1.2397,1.2404,1.2305,1.2304,1.2303,1.2303,0,0,1.2216,1.2232,1.2241,1.225,1.2265,1.2284,1.2313,1.2334,1.2347,1.2362,1.2385,1.2417,1.2403,1.2414,1.2409,1.243,1.2476,1.2412,1.2412,1.2423,1.2527,1.2538,1.2547,1.2468,1.2469,1.247,1.2526,0,1.2273,1.2324,1.2319,1.2367,1.239,1.2375,1.24,1.2411,1.2413,1.2433,1.2435,1.2457,1.2437,1.2444,1.2463,1.2466,1.2496,1.2462,1.2489,1.249,1.2486,1.2557,1.2569,1.2621,1.2533,1.2534,1.2535,0,1.2346,1.2363,1.2413,1.2424,1.2433,1.2456,1.2475,1.2494,1.2506,1.2506,1.2518,1.251,1.2538,1.2512,1.255,1.2527,1.2538,1.2541,1.2542,1.2545,1.2515,1.256,1.2638,1.2645,1.2547,1.2546,1.2545,0,1.2396,1.2431,1.2466,1.2474,1.2487,1.2503,1.251,1.252,1.2533,1.2549,1.2557,1.2576,1.2586,1.2601,1.2597,1.2579,1.2636,1.261,1.2637,1.2637,1.2649,1.2649,1.2729,1.2657,1.2657,1.2657,1.2657,0,1.246,1.2491,1.2488,1.251,1.2544,1.2538,1.2572,1.2576,1.2586,1.2607,1.2595,1.2615,1.2609,1.2628,1.2626,1.2658,1.2662,1.2663,1.2662,1.2664,1.2664,1.267,1.2666,1.2659,1.2658,1.2658,1.2658,0,1.2521,1.2521,1.2557,1.2567,1.257,1.2595,1.2603,1.2622,1.2623,1.265,1.2656,1.2657,1.2679,1.2677,1.2702,1.27,1.274,1.2734,1.2736,1.2734,1.2761,1.2758,1.2848,1.2859,1.2781,1.2781,1.2782,0,1.2562,1.2585,1.2597,1.2611,1.2618,1.264,1.2653,1.2648,1.2662,1.2677,1.2695,1.2716,1.2733,1.2769,1.2771,1.279,1.2785,1.2815,1.2788,1.2789,1.2785,1.2783,1.2785,1.2821,1.2821,1.2822,1.2823,0,1.2633,1.2632,1.2651,1.267,1.2686,1.2701,1.2714,1.2726,1.2722,1.2738,1.2761,1.2774,1.2799,1.282,1.2838,1.2843,1.2832,1.2831,1.2838,1.2841,1.284,1.284,1.275,1.2829,1.2829,1.2828,1.2828,1.2828,1.2685,1.2705,1.2717,1.2738,1.2748,1.2761,1.2779,1.2783,1.2802,1.2822,1.2818,1.2843,1.2854,1.2877,1.2884,1.2903,1.2892,1.2903,1.2905,1.2908,1.2911,1.2837,1.2907,1.2906,1.2906,1.2906,1.2906,0,1.2756,1.2762,1.2782,1.2802,1.2818,1.2807,1.2821,1.2836,1.2858,1.2869,1.2886,1.2912,1.2932,1.2936,1.2955,1.2969,1.2965,1.2975,1.2973,1.2975,1.292,1.2911,1.2978,1.2978,1.2978,1.2978,1.2978,1.2978,1.2795,1.2828,1.2828,1.2865,1.2871,1.2896,1.2905,1.2916,1.2925,1.2955,1.2971,1.2974,1.2982,1.3001,1.3019,1.302,1.3027,1.3039,1.3037,1.2986,1.2979,1.2972,1.2964,1.304,1.304,1.309,1.3091,1.3091]}]]